Location: Waco, TX
(31.5480°N, 97.1670°W)
Time: 00:53:43
(UTC-06:00)

ISS - Pass Details

Date: 14 January 2018
Orbit: 402 x 407 km, 51.6° (Epoch: 21 January)

Event Time Altitude Azimuth Distance (km) Brightness Sun altitude
Rises 00:27:51 0° 266° (W) 2,306 - -79.5°
Reaches altitude 10° 00:30:42 10° 294° (WNW) 1,451 - -79.6°
Maximum altitude 00:32:28 14° 326° (NNW) 1,247 - -79.7°
Drops below altitude 10° 00:34:14 10° 360° (N) 1,455 - -79.7°
Sets 00:37:07 0° 27° (NNE) 2,318 - -79.8°
